Hourly Weather Roundup
Issued by NWS Central Illinois

Home | Current Version | Previous Version | Text Only | Print | Product List | Glossary On
Versions: 1 2 3 4 5 6 7 8 9 10 11 12 13 14 15 16 17 18 19 20 21 22 23 24 25 26 27 28 29 30 31 32 33 34 35 36 37 38 39 40 41 42 43 44 45 46 47 48 49 50
000
NZUS43 KILX 220310
HWRILX

AREA WEATHER ROUNDUP
NATIONAL WEATHER SERVICE, LINCOLN IL
1000 PM CDT THU AUG 21 2014


CITY           SKY/WX    TMP DP  RH WIND       PRES   REMARKS
BLOOMINGTON    PTCLDY    78  75  90 S8        29.95S HX  80
CHAMPAIGN      PTCLDY    79  76  90 S9        29.96R HX  83
DECATUR        CLEAR     81  76  84 S8        29.95S HX  87
FLORA          CLEAR     77  74  91 S7        30.00R
GALESBURG      MOCLDY    79  76  91 S3        29.91R HX  83
JACKSONVILLE   CLEAR     83  77  81 S7        29.93S HX  92
LACON          CLOUDY    80  75  86 S6        29.90R HX  84
LAWRENCEVILLE  CLEAR     76  74  93 CALM      30.00R
LITCHFIELD     CLEAR     79  76  92 SE8       29.96S HX  83
$$


CITY           SKY/WX    TMP DP  RH WIND       PRES   REMARKS
LINCOLN        CLEAR     81  76  85 S8        29.90R HX  88
MACOMB         PTCLDY    77  75  95 S5        29.92R
MATTOON        CLEAR     80  74  81 S7        29.97R HX  85
MT CARMEL AP   CLEAR     81  75  83 W3        30.00R HX  86
OLNEY-NOBLE AP CLEAR     73  73 100 CALM      30.00R
PARIS          MOCLDY    75  75 100 S3        29.99R
PEORIA         MOCLDY    83  77  82 S5        29.91R HX  92
PONTIAC        MOCLDY    79  79 100 S5        29.92F HX  83
RANTOUL        PTCLDY    80  75  84 S3        29.96R HX  85
ROBINSON       PTCLDY    75  74  97 CALM      30.00R
SPRINGFIELD    CLEAR     83  77  82 S10       29.92S HX  92
TAYLORVILLE    CLEAR     77  75  94 S8        29.95S
$$

...REGIONAL REPORTS...


CITY           SKY/WX    TMP DP  RH WIND       PRES   REMARKS
CHICAGO O`HARE CLOUDY    75  70  84 CALM      29.93R
KANKAKEE       CLOUDY    74  72  93 SE6       29.95S
MOLINE         PTCLDY    76  73  91 SE3       29.89R
MOUNT VERNON   CLEAR     79  72  78 S3        30.00R HX  82
PITTSFIELD     CLEAR     80  75  85 S3        29.93S HX  85
QUINCY         CLEAR     81  76  84 S6        29.91R HX  87
ROCKFORD       MOCLDY    75  73  93 E5        29.95R
$$


CITY           SKY/WX    TMP DP  RH WIND       PRES   REMARKS
BURLINGTON     CLEAR     78  77  96 SW6       29.89R HX  81
CEDAR RAPIDS   CLEAR     76  74  93 CALM      29.89R
DES MOINES     PTCLDY    83  76  79 SE5       29.87R HX  91
KIRKSVILLE     PTCLDY    78  75  90 S6        29.92R HX  81
OTTUMWA        PTCLDY    77  75  93 SE5       29.89R
ST LOUIS       MOCLDY    88  76  67 S10       29.95R HX  99
$$


CITY           SKY/WX    TMP DP  RH WIND       PRES   REMARKS
TERRE HAUTE    MOCLDY    78  74  87 S6        29.99R HX  81
EVANSVILLE     PTCLDY    80  72  76 SW9       30.01R HX  84
INDIANAPOLIS   CLOUDY    80  75  84 N3        30.01R THUNDER HX  85
LAFAYETTE      CLOUDY    73  72  96 CALM      29.96S
MADISON        CLOUDY    76  72  87 S5        29.93R
MILWAUKEE      CLOUDY    72  69  90 SE3       29.95R
$$




USA.gov is the U.S. government's official web portal to all federal, state and local government web resources and services.